Other Public Products
Issued by NWS Grand Forks, ND

Home | Current Version | Previous Version | Graphics & Text | Print | Product List | Glossary On
Versions: 1 2 3 4 5 6 7 8 9 10 11 12 13 14 15 16 17 18 19 20 21 22 23 24 25 26 27 28 29 30 31 32 33 34 35 36 37 38 39 40 41 42 43 44 45 46 47 48 49 50
000
FPUS83 KFGF 021810
OPUFGF
PRAIRIE TO PINES WEATHER ROUNDUP
NATIONAL WEATHER SERVICE EASTERN NORTH DAKOTA/GRAND FORKS ND
100 PM CDT TUE JUN 02 2015

 **SATELLITE DATA USED TO AUGMENT SKY COVER AT AUTOMATED STATIONS**
 *****  WEATHER ACROSS EASTERN NORTH DAKOTA  *****

CITY           SKY/WX    TMP DP  RH WIND       PRES   REMARKS
GRAND FORKS    CLOUDY    66  58  75 S7        29.81S
6HR MIN TEMP:  58; 6HR MAX TEMP:  66; 6HR PCP: TRACE;

GRAND FORKS AF CLOUDY    65  57  75 SE6       29.82R
GRAND CITY NWS   N/A     64 N/A N/A S5          N/A
BUXTON         NOT AVBL
DEVILS LAKE    CLOUDY    66  59  77 E9        29.81S
6HR MIN TEMP:  59; 6HR MAX TEMP:  66; 6HR PCP:  0.02;

FARGO          CLOUDY    70  58  65 S31G39    29.78R
6HR MIN TEMP:  61; 6HR MAX TEMP:  71; 6HR PCP: TRACE;

WAHPETON ARPT  CLOUDY    68  55  64 SE16G24   29.83F
$$

 *****  WEATHER ACROSS CENTRAL AND WESTERN NORTH DAKOTA  *****

CITY           SKY/WX    TMP DP  RH WIND       PRES   REMARKS
JAMESTOWN      CLOUDY    67  61  81 S8        29.77F
6HR MIN TEMP:  61; 6HR MAX TEMP:  67; 6HR PCP: TRACE;

BISMARCK       CLOUDY    74  63  68 NW6       29.75F
6HR MIN TEMP:  60; 6HR MAX TEMP:  74;

MINOT          CLOUDY    66  60  81 NE13      29.80S
6HR MIN TEMP:  58; 6HR MAX TEMP:  67;

MINOT AFB      CLOUDY    64  64 100 E13       29.80S
6HR MIN TEMP:  59; 6HR MAX TEMP:  64; 6HR PCP: TRACE;

GARRISON         N/A     68  62  81 E10       29.78F
6HR MIN TEMP:  59; 6HR MAX TEMP:  68; 6HR PCP:  0.01;

WILLISTON      RAIN      59  57  93 N9        29.80F FOG
6HR MIN TEMP:  57; 6HR MAX TEMP:  62; 6HR PCP:  0.94;

DICKINSON      MOSUNNY   73  58  59 MISG      29.78S
6HR MIN TEMP:  57; 6HR MAX TEMP:  74;

HETTINGER      SUNNY     76  60  57 W9        29.79S
6HR MIN TEMP:  58; 6HR MAX TEMP:  76;

$$

 *****  OTHER OBSERVATIONS NORTHEAST NORTH DAKOTA  *****

CITY           SKY/WX    TMP DP  RH WIND       PRES   REMARKS
WALHALLA       RAIN      61  61 100 MISG      29.85R
LANGDON        DRIZZLE   59  59 100 E13       29.85S
CAVALIER       LGT RAIN  61  57  88 W3        29.84S
GRAFTON        CLOUDY    63  59  88 CALM      29.83S
CANDO          CLOUDY    61  59  94 NE6       29.84S
FORT TOTTEN    NOT AVBL
ROLLA          CLOUDY    57  57 100 NE13G18   29.87R
RUGBY          NOT AVBL
 ***** THE ABOVE OBSERVATIONS ARE NON NWS ARE NOT QUALITY
        CONTROLLED AND MAY MIS-REPORT RAIN FOR SNOW...
$$

 *****  OTHER OBSERVATIONS SOUTHEAST NORTH DAKOTA *****

CITY           SKY/WX    TMP DP  RH WIND       PRES   REMARKS
COOPERSTOWN    NOT AVBL
VALLEY CITY    CLOUDY    68  66  94 S13       29.80F
OAKES            N/A     72  64  78 S18       29.77F
GWINNER        NOT AVBL
BUFFALO        NOT AVBL
WYNDMERE         N/A     70  59  68 S20         N/A
 ***** THE ABOVE OBSERVATIONS ARE NON NWS ARE NOT QUALITY
       CONTROLLED AND MAY MIS-REPORT RAIN FOR SNOW...
$$

  *****  WEATHER ACROSS NORTHERN MINNESOTA  *****

CITY           SKY/WX    TMP DP  RH WIND       PRES   REMARKS
FLAG ISLAND    CLOUDY    61  54  77 S15       29.85S
WARROAD        PTSUNNY   68  61  77 S6        29.86S
ROSEAU         PTSUNNY   72  61  68 S13       29.84S
HALLOCK        LGT RAIN  64  57  77 SW6       29.83S
THF RVR FALLS  CLOUDY    64  57  77 E5        29.83F
6HR MIN TEMP:  55; 6HR MAX TEMP:  64; 6HR PCP:  0.13;

HALSTAD        NOT AVBL
FOSSTON        CLOUDY    70  63  78 SE7G20    29.81F
BAUDETTE       CLOUDY    61  55  81 SE7       29.88S
6HR MIN TEMP:  57; 6HR MAX TEMP:  63; 6HR PCP:  0.01;

WASKISH        CLOUDY    63  57  82 SE6       29.87F
CROOKSTON      CLOUDY    70  61  73 SW14      29.83R
$$
  *****  WEATHER ACROSS CENTRAL AND WEST MINNESOTA  *****

CITY           SKY/WX    TMP DP  RH WIND       PRES   REMARKS
BEMIDJI        CLOUDY    70  56  61 S16G22    29.85F
PARK RAPIDS    CLOUDY    74  53  48 S20G31    29.88F
6HR MIN TEMP:  58; 6HR MAX TEMP:  76;

WADENA         CLOUDY    70  55  60 S21G28    29.89F
DETROIT LAKES  LGT RAIN  66  57  72 SE22      29.82F
MOORHEAD       CLOUDY    70  57  64 S30G39    29.78R
FERGUS FALLS   CLOUDY    70  55  60 S16G23    29.86R
ELBOW LAKE     FAIR      67  55  64 SE26G32   29.85R
6HR MIN TEMP:  60; 6HR MAX TEMP:  68;

MORRIS MN      CLOUDY    70  55  60 S29G35    29.86F
STAPLES        CLOUDY    72  54  53 S10G23    29.93F
WHEATON        CLOUDY    68  55  64 SE21G30   29.84F
$$
  *****  WEATHER ELSEWHERE ACROSS MINNESOTA  *****

CITY           SKY/WX    TMP DP  RH WIND       PRES   REMARKS
DULUTH         MOSUNNY   70  48  45 S15       30.01F
6HR MIN TEMP:  50; 6HR MAX TEMP:  71;

INTRNTL FALLS  CLOUDY    58  52  80 S5        29.91F
6HR MIN TEMP:  54; 6HR MAX TEMP:  59; 6HR PCP:  0.04;

ELY            CLOUDY    66  43  42 S7G17     29.98F
CLOQUET        MOSUNNY   72  46  40 S12G18    30.00F
BRAINERD       PTSUNNY   71  53  52 S17G25    29.96F
6HR MIN TEMP:  58; 6HR MAX TEMP:  72;

HIBBING        PTSUNNY   71  48  43 S10G17    29.96F
6HR MIN TEMP:  48; 6HR MAX TEMP:  72;

ALEXANDRIA     CLOUDY    70  54  56 S23G30    29.91F
6HR MIN TEMP:  60; 6HR MAX TEMP:  70;

SAINT CLOUD    PTSUNNY   73  52  47 S16G24    29.98F
6HR MIN TEMP:  58; 6HR MAX TEMP:  73;

MINNEAPOLIS    PTSUNNY   72  53  51 S12       30.03S
6HR MIN TEMP:  56; 6HR MAX TEMP:  73;

$$

  *****  WEATHER ACROSS SOUTH DAKOTA  *****

CITY           SKY/WX    TMP DP  RH WIND       PRES   REMARKS
SIOUX FALLS    CLOUDY    72  60  66 S22G29    29.91F
6HR MIN TEMP:  59; 6HR MAX TEMP:  72;

BROOKINGS      PTSUNNY   73  59  60 S23G31    29.89F
WATERTOWN      CLOUDY    72  59  63 S21G31    29.85F
6HR MIN TEMP:  58; 6HR MAX TEMP:  72;

HURON          SUNNY     79  61  53 S17G25    29.79F
6HR MIN TEMP:  62; 6HR MAX TEMP:  79;

SISSETON         N/A     72  59  63 S16G23    29.81F
ABERDEEN       SUNNY     76  63  64 S24G33    29.77F
6HR MIN TEMP:  60; 6HR MAX TEMP:  76; 6HR PCP:  0.17;

MITCHELL       MOSUNNY   78  60  53 S23G30    29.83F
PIERRE         SUNNY     83  62  49 S14       29.72F
6HR MIN TEMP:  63; 6HR MAX TEMP:  83; 6HR PCP:  0.01;

MOBRIDGE       SUNNY     83  62  49 S13       29.70F
RAPID CITY     MOSUNNY   76  60  57 N13       29.83S
6HR MIN TEMP:  58; 6HR MAX TEMP:  77;

$$

  *****  SOME WEATHER IN NEARBY STATES *****

CITY           SKY/WX    TMP DP  RH WIND       PRES   REMARKS
GLASGOW MT     LGT RAIN  56  50  80 N9        29.88S
6HR MIN TEMP:  52; 6HR MAX TEMP:  56; 6HR PCP:  0.50;

GREAT FALLS MT MOSUNNY   67  49  52 SW12      29.87F
6HR MIN TEMP:  51; 6HR MAX TEMP:  67; 6HR PCP: TRACE;

CHEYENNE WY    PTSUNNY   79  45  29 N9        29.97F
6HR MIN TEMP:  48; 6HR MAX TEMP:  80;

SCOTTSBLUFF NE MOSUNNY   77  61  57 SE6       29.87F
6HR MIN TEMP:  61; 6HR MAX TEMP:  77; 6HR PCP:  0.02;

OMAHA NE       PTSUNNY   73  58  59 SE15      29.99S
6HR MIN TEMP:  58; 6HR MAX TEMP:  73;

DES MOINES IA  CLOUDY    67  54  63 SE21      30.06F
6HR MIN TEMP:  56; 6HR MAX TEMP:  67;

DAVENPORT IA   MOSUNNY   69  49  48 SE12      30.12F
6HR MIN TEMP:  52; 6HR MAX TEMP:  70;

CHICAGO IL     MOSUNNY   68  44  42 E10       30.14F
6HR MIN TEMP:  48; 6HR MAX TEMP:  68;

EAU CLAIRE WI  SUNNY     71  50  47 S10G20    30.07F
6HR MIN TEMP:  52; 6HR MAX TEMP:  72;

LA CROSSE WI   SUNNY     72  51  47 S9        30.08F
6HR MIN TEMP:  53; 6HR MAX TEMP:  72;

$$

  *****  SOME NATIONAL WEATHER *****

CITY           SKY/WX    TMP DP  RH WIND       PRES   REMARKS
LA GUARDIA NY  LGT RAIN  54  49  83 N9G18     30.14S



USA.gov is the U.S. government's official web portal to all federal, state and local government web resources and services.